Flag for Brazil Weather past 2 weeks in Rio Branco, Acre, Brazil

Now
72 °F

Passing clouds.


Feels Like: 67 °F
Forecast: 71 / 85 °F
Wind: 3 mph from Northeast

Location: Rio Branco Airport

Current Time: Jan 26, 2015 at 2:10:49 AM

Latest Report: Jan 26, 2015 at 1:00 AM


Visibility: N/A

Pressure: 29.86 "Hg

Humidity: 94%

Dew point: 70 °F

Location of Rio BrancoLocation

Historic Weather in Rio Branco — Graph

°F

Rio Branco temperature yesterday

Maximum temperature yesterday: 81 °F (at 4:00 PM)
Minimum temperature yesterday: 43 °F (at 9:00 AM)
Average temperature yesterday: 73 °F

Past Weeks' High & Low Weather Summary

 TemperatureHumidityPressure
High90 °F (Jan 15, 4:00 PM)100% (Jan 11, 3:00 AM)30.01 "Hg (Jan 11, 3:00 AM)
Low36 °F (Jan 21, 8:00 PM)21% (Jan 18, 2:00 PM)29.74 "Hg (Jan 25, 5:00 PM)
Average75 °F87%29.89 "Hg
* Reported Jan 11 1:00 AM — Jan 26 1:00 AM, Rio Branco, Weather by CustomWeather, © 2014

Note: Actual official high and low records may vary slightly from our data, if they occured in-between our weather recording intervals... More about our weather records

Advertising

Rio Branco weather history for previous 24 hours

 ConditionsComfort  
Time TempWeatherWind HumidityBarometerVisibility
1:00 AM
Jan 26
72 °FPassing clouds.3 mph94%29.86 "HgN/A
12:00 AM72 °FPassing clouds.6 mph94%29.86 "HgN/A
11:00 PM
Jan 25
72 °FPassing clouds.3 mph94%29.89 "HgN/A
10:00 PM72 °FClear.5 mph94%29.89 "Hg10 mi
9:00 PM73 °FClear.5 mph94%29.86 "Hg10 mi
8:00 PM73 °FClear.3 mph94%29.83 "Hg10 mi
7:00 PM75 °FSunny.6 mph89%29.80 "Hg10 mi
6:00 PM77 °FSunny.6 mph89%29.77 "Hg10 mi
5:00 PM81 °FPassing clouds.6 mph79%29.74 "HgN/A
4:00 PM81 °FBroken clouds.7 mph84%29.77 "HgN/A
3:00 PM75 °FBroken clouds.3 mph94%29.77 "HgN/A
2:00 PM72 °FLight rain. More clouds than sun.1 mph100%29.80 "Hg5 mi
1:00 PM77 °FLight rain. More clouds than sun.5 mph83%29.86 "Hg5 mi
12:00 PM79 °FBroken clouds.8 mph89%29.89 "HgN/A
11:00 AM77 °FLight rain. More clouds than sun.6 mph94%29.92 "HgN/A
10:00 AM77 °FLight rain. Mostly cloudy.6 mph94%29.92 "HgN/A
9:00 AM43 °FScattered showers. Partly sunny.8 mph100%29.92 "Hg5 mi
8:00 AM77 °FPartly sunny.5 mph89%29.92 "Hg4 mi
7:00 AM73 °FFog.5 mph94%29.89 "Hg2 mi
6:00 AM73 °FFog.3 mph94%29.86 "Hg3 mi
5:00 AM73 °FPartly cloudy.5 mph94%29.83 "HgN/A
4:00 AM73 °FPartly cloudy.7 mph94%29.83 "HgN/A
3:00 AM72 °FPartly cloudy.6 mph94%29.83 "HgN/A
2:00 AM72 °FPartly cloudy.3 mph94%29.86 "HgN/A
Weather by CustomWeather, © 2014

See weather overviewHow to use our weather pages